This is the latest recevied weather packets stored in our database for station/object DL7GAI-7. If no packets are shown the sender has not sent any weather packets the latest 10 day(s).
| Time | Temp. | Humidity | Pressure | Rain* | Wind** | Luminosity | Snow |
|---|---|---|---|---|---|---|---|
| 1777419900 | 16.11° C | 39% | 1016.3 hPa | 0 mm | 3.13 m/s, 45° | - | - |
| 1777419070 | 16.67° C | 37% | 1016.2 hPa | 0 mm | 3.13 m/s, 45° | - | - |
| 1777418250 | 16.67° C | 37% | 1016.2 hPa | 0 mm | 3.13 m/s, 45° | - | - |
| 1777417400 | 16.67° C | 37% | 1016.2 hPa | 0 mm | 3.13 m/s, 45° | - | - |
| 1777416565 | 16.67° C | 37% | 1016.2 hPa | 0 mm | 3.13 m/s, 45° | - | - |
| 1777415810 | 16.67° C | 37% | 1016.2 hPa | 0 mm | 3.13 m/s, 45° | - | - |
| 1777414985 | 17.22° C | 35% | 1015.9 hPa | 0 mm | 4.02 m/s, 90° | - | - |
| 1777414215 | 17.22° C | 35% | 1015.9 hPa | 0 mm | 4.02 m/s, 90° | - | - |
| 1777413360 | 17.22° C | 35% | 1015.9 hPa | 0 mm | 4.02 m/s, 90° | - | - |
| 1777412472 | 17.22° C | 35% | 1015.9 hPa | 0 mm | 4.02 m/s, 90° | - | - |
| 1777411610 | 17.22° C | 35% | 1015.9 hPa | 0 mm | 4.02 m/s, 90° | - | - |
| 1777410790 | 17.22° C | 35% | 1015.9 hPa | 0 mm | 4.02 m/s, 90° | - | - |
| 1777409960 | 17.78° C | 34% | 1015.5 hPa | 0 mm | 4.02 m/s, 90° | - | - |
| 1777409137 | 17.78° C | 34% | 1015.5 hPa | 0 mm | 4.02 m/s, 90° | - | - |
| 1777408346 | 17.78° C | 34% | 1015.5 hPa | 0 mm | 4.02 m/s, 90° | - | - |
| 1777407555 | 17.78° C | 34% | 1015.5 hPa | 0 mm | 4.02 m/s, 90° | - | - |
| 1777406780 | 17.78° C | 34% | 1015.5 hPa | 0 mm | 4.02 m/s, 90° | - | - |
| 1777405920 | 17.22° C | 38% | 1015.4 hPa | 0 mm | 2.24 m/s, 90° | - | - |
| 1777405080 | 17.22° C | 38% | 1015.4 hPa | 0 mm | 2.24 m/s, 90° | - | - |
| 1777404250 | 18.33° C | 35% | 1015.1 hPa | 0 mm | 2.68 m/s, 90° | - | - |
| 1777403475 | 18.33° C | 35% | 1015.1 hPa | 0 mm | 2.68 m/s, 90° | - | - |
| 1777402675 | 18.33° C | 33% | 1014.8 hPa | 0 mm | 4.02 m/s, 90° | - | - |
| 1777401872 | 18.33° C | 33% | 1014.8 hPa | 0 mm | 4.02 m/s, 90° | - | - |
| 1777401115 | 18.33° C | 37% | 1014.6 hPa | 0 mm | 3.13 m/s, 90° | - | - |
| 1777400293 | 18.33° C | 37% | 1014.6 hPa | 0 mm | 3.13 m/s, 90° | - | - |
* Rain latest hour (hover to see other rain measurements)
** Current wind speed in m/s (hover to see current wind gust speed)